Time,TemperatureF,DewpointF,PressureIn,WindDirection,WindDirectionDegrees,WindSpeedMPH,WindSpeedGustMPH,Humidity,HourlyPrecipIn,Conditions,Clouds,dailyrainin,SolarRadiationWatts/m^2,SoftwareType,DateUTC
2013-02-01 00:12:00,19.2,14.0,29.93,NW,307,13.0,18.0,80,0.00,,,0.00,0,weatherlink.com 1.10,2013-02-01 05:12:00,
2013-02-01 00:27:00,18.9,14.0,29.94,NW,304,13.0,21.0,80,0.00,,,0.00,0,weatherlink.com 1.10,2013-02-01 05:27:00,
2013-02-01 00:42:00,19.0,14.0,29.95,NW,306,10.0,20.0,81,0.00,,,0.00,0,weatherlink.com 1.10,2013-02-01 05:42:00,
2013-02-01 00:57:00,19.2,14.0,29.95,NW,304,13.0,19.0,80,0.00,,,0.00,0,weatherlink.com 1.10,2013-02-01 05:57:00,
2013-02-01 01:12:00,19.1,13.0,29.96,WNW,298,12.0,20.0,77,0.00,,,0.00,0,weatherlink.com 1.10,2013-02-01 06:12:00,
2013-02-01 01:27:00,19.1,13.0,29.96,NW,315,11.0,17.0,78,0.00,,,0.00,0,weatherlink.com 1.10,2013-02-01 06:27:00,
2013-02-01 01:42:00,19.0,14.0,29.96,WNW,297,11.0,17.0,79,0.00,,,0.00,0,weatherlink.com 1.10,2013-02-01 06:42:00,
2013-02-01 01:57:00,19.0,14.0,29.97,WNW,298,14.0,18.0,79,0.00,,,0.00,0,weatherlink.com 1.10,2013-02-01 06:57:00,
2013-02-01 02:12:00,18.9,14.0,29.97,WNW,287,11.0,16.0,80,0.00,,,0.00,0,weatherlink.com 1.10,2013-02-01 07:12:00,
2013-02-01 02:27:00,19.2,14.0,29.98,WNW,300,11.0,20.0,79,0.00,,,0.00,0,weatherlink.com 1.10,2013-02-01 07:27:00,
2013-02-01 02:42:00,18.7,14.0,29.98,WNW,297,15.0,18.0,83,0.00,,,0.00,0,weatherlink.com 1.10,2013-02-01 07:42:00,
2013-02-01 02:57:00,18.8,13.0,29.99,WNW,298,10.0,17.0,78,0.00,,,0.00,0,weatherlink.com 1.10,2013-02-01 07:57:00,
2013-02-01 03:13:00,19.0,14.0,30.00,NW,306,12.0,19.0,80,0.00,,,0.00,0,weatherlink.com 1.10,2013-02-01 08:13:00,
2013-02-01 03:28:00,19.0,14.0,30.00,WNW,300,16.0,18.0,79,0.00,,,0.00,0,weatherlink.com 1.10,2013-02-01 08:28:00,
2013-02-01 03:43:00,18.7,13.0,30.01,WNW,301,15.0,17.0,78,0.00,,,0.00,0,weatherlink.com 1.10,2013-02-01 08:43:00,
2013-02-01 03:58:00,18.5,13.0,30.01,WNW,295,16.0,16.0,78,0.00,,,0.00,0,weatherlink.com 1.10,2013-02-01 08:58:00,
2013-02-01 04:13:00,18.6,13.0,30.02,WNW,303,14.0,17.0,77,0.00,,,0.00,0,weatherlink.com 1.10,2013-02-01 09:13:00,
2013-02-01 04:28:00,18.4,13.0,30.02,WNW,298,10.0,16.0,78,0.00,,,0.00,0,weatherlink.com 1.10,2013-02-01 09:28:00,
2013-02-01 04:43:00,18.2,12.0,30.03,WNW,298,15.0,16.0,78,0.00,,,0.00,0,weatherlink.com 1.10,2013-02-01 09:43:00,
2013-02-01 04:58:00,18.0,12.0,30.04,WNW,299,12.0,17.0,78,0.00,,,0.00,0,weatherlink.com 1.10,2013-02-01 09:58:00,
2013-02-01 05:13:00,18.2,12.0,30.04,WNW,290,12.0,17.0,78,0.00,,,0.00,0,weatherlink.com 1.10,2013-02-01 10:13:00,
2013-02-01 05:28:00,18.1,12.0,30.05,WNW,300,12.0,18.0,76,0.00,,,0.00,0,weatherlink.com 1.10,2013-02-01 10:28:00,
2013-02-01 05:43:00,18.0,12.0,30.06,WNW,300,12.0,17.0,77,0.00,,,0.00,0,weatherlink.com 1.10,2013-02-01 10:43:00,
2013-02-01 05:58:00,17.8,11.0,30.07,NW,306,12.0,17.0,76,0.00,,,0.00,0,weatherlink.com 1.10,2013-02-01 10:58:00,
2013-02-01 06:13:00,17.9,12.0,30.07,WNW,297,11.0,18.0,77,0.00,,,0.00,0,weatherlink.com 1.10,2013-02-01 11:13:00,
2013-02-01 06:28:00,17.3,11.0,30.08,WNW,294,14.0,18.0,77,0.00,,,0.00,0,weatherlink.com 1.10,2013-02-01 11:28:00,
2013-02-01 06:43:00,17.6,11.0,30.09,WNW,303,12.0,17.0,76,0.00,,,0.00,0,weatherlink.com 1.10,2013-02-01 11:43:00,
2013-02-01 06:58:00,17.6,12.0,30.09,WNW,293,13.0,19.0,78,0.00,,,0.00,0,weatherlink.com 1.10,2013-02-01 11:58:00,
2013-02-01 07:13:00,16.9,12.0,30.10,WNW,300,13.0,18.0,81,0.00,,,0.00,0,weatherlink.com 1.10,2013-02-01 12:13:00,
2013-02-01 07:28:00,17.3,12.0,30.11,WNW,291,10.0,15.0,79,0.00,,,0.00,0,weatherlink.com 1.10,2013-02-01 12:28:00,
2013-02-01 07:43:00,16.9,13.0,30.12,WNW,301,16.0,20.0,84,0.00,,,0.00,0,weatherlink.com 1.10,2013-02-01 12:43:00,
2013-02-01 07:58:00,16.6,12.0,30.12,WNW,294,15.0,20.0,82,0.00,,,0.00,0,weatherlink.com 1.10,2013-02-01 12:58:00,
2013-02-01 08:13:00,16.6,12.0,30.13,WNW,295,13.0,17.0,83,0.00,,,0.00,0,weatherlink.com 1.10,2013-02-01 13:13:00,
2013-02-01 08:28:00,16.4,12.0,30.14,WNW,292,13.0,17.0,83,0.00,,,0.00,7,weatherlink.com 1.10,2013-02-01 13:28:00,
2013-02-01 08:43:00,16.4,12.0,30.14,WNW,301,13.0,16.0,81,0.00,,,0.00,16,weatherlink.com 1.10,2013-02-01 13:43:00,
2013-02-01 08:58:00,16.3,11.0,30.15,NW,306,11.0,17.0,81,0.00,,,0.00,25,weatherlink.com 1.10,2013-02-01 13:58:00,
2013-02-01 09:13:00,16.2,11.0,30.15,WNW,297,15.0,16.0,80,0.00,,,0.00,25,weatherlink.com 1.10,2013-02-01 14:13:00,
2013-02-01 09:28:00,16.4,12.0,30.16,WNW,292,13.0,19.0,81,0.00,,,0.00,44,weatherlink.com 1.10,2013-02-01 14:28:00,
2013-02-01 09:44:00,16.2,11.0,30.17,WNW,297,12.0,15.0,81,0.00,,,0.00,37,weatherlink.com 1.10,2013-02-01 14:44:00,
2013-02-01 09:58:00,16.2,11.0,30.17,WNW,294,11.0,15.0,80,0.00,,,0.00,39,weatherlink.com 1.10,2013-02-01 14:58:00,
2013-02-01 10:14:00,15.8,11.0,30.17,WNW,297,9.0,14.0,81,0.00,,,0.00,49,weatherlink.com 1.10,2013-02-01 15:14:00,
2013-02-01 10:29:00,15.8,11.0,30.18,WNW,283,8.0,15.0,80,0.00,,,0.00,58,weatherlink.com 1.10,2013-02-01 15:29:00,
2013-02-01 10:44:00,15.3,10.0,30.18,WNW,300,11.0,14.0,80,0.00,,,0.00,53,weatherlink.com 1.10,2013-02-01 15:44:00,
2013-02-01 10:59:00,15.7,11.0,30.18,WNW,297,9.0,13.0,82,0.00,,,0.00,81,weatherlink.com 1.10,2013-02-01 15:59:00,
2013-02-01 11:14:00,15.7,12.0,30.18,West,275,13.0,13.0,84,0.00,,,0.00,74,weatherlink.com 1.10,2013-02-01 16:14:00,
2013-02-01 11:29:00,15.7,10.0,30.19,West,279,8.0,13.0,79,0.00,,,0.00,98,weatherlink.com 1.10,2013-02-01 16:29:00,
2013-02-01 11:44:00,15.8,12.0,30.19,West,278,11.0,14.0,84,0.00,,,0.00,69,weatherlink.com 1.10,2013-02-01 16:44:00,
2013-02-01 11:59:00,15.8,11.0,30.19,West,271,11.0,14.0,81,0.00,,,0.00,116,weatherlink.com 1.10,2013-02-01 16:59:00,
2013-02-01 12:14:00,15.7,11.0,30.19,West,278,8.0,11.0,83,0.00,,,0.00,111,weatherlink.com 1.10,2013-02-01 17:14:00,
2013-02-01 12:29:00,15.9,11.0,30.19,NW,304,8.0,13.0,82,0.00,,,0.00,102,weatherlink.com 1.10,2013-02-01 17:29:00,
2013-02-01 12:44:00,15.6,11.0,30.18,WNW,292,9.0,16.0,83,0.00,,,0.00,114,weatherlink.com 1.10,2013-02-01 17:44:00,
2013-02-01 12:59:00,15.6,12.0,30.18,WNW,294,10.0,16.0,84,0.00,,,0.00,67,weatherlink.com 1.10,2013-02-01 17:59:00,
2013-02-01 13:14:00,15.4,11.0,30.18,West,281,12.0,19.0,84,0.00,,,0.00,93,weatherlink.com 1.10,2013-02-01 18:14:00,
2013-02-01 13:29:00,15.6,11.0,30.18,West,263,9.0,19.0,80,0.00,,,0.00,107,weatherlink.com 1.10,2013-02-01 18:29:00,
2013-02-01 13:44:00,15.5,11.0,30.18,West,279,16.0,19.0,81,0.00,,,0.00,104,weatherlink.com 1.10,2013-02-01 18:44:00,
2013-02-01 13:59:00,15.3,10.0,30.18,WSW,250,16.0,19.0,80,0.00,,,0.00,123,weatherlink.com 1.10,2013-02-01 18:59:00,
2013-02-01 14:14:00,14.9,11.0,30.17,WSW,249,13.0,21.0,84,0.00,,,0.00,70,weatherlink.com 1.10,2013-02-01 19:14:00,
2013-02-01 14:29:00,14.7,11.0,30.17,WSW,250,17.0,18.0,85,0.00,,,0.00,69,weatherlink.com 1.10,2013-02-01 19:29:00,
2013-02-01 14:44:00,14.4,11.0,30.18,West,264,14.0,21.0,86,0.00,,,0.00,104,weatherlink.com 1.10,2013-02-01 19:44:00,
2013-02-01 14:59:00,14.7,12.0,30.17,West,271,11.0,21.0,87,0.00,,,0.00,109,weatherlink.com 1.10,2013-02-01 19:59:00,
2013-02-01 15:14:00,14.5,12.0,30.17,WSW,247,15.0,21.0,88,0.00,,,0.00,91,weatherlink.com 1.10,2013-02-01 20:14:00,
2013-02-01 15:29:00,14.5,11.0,30.18,West,273,14.0,23.0,86,0.00,,,0.00,113,weatherlink.com 1.10,2013-02-01 20:29:00,
2013-02-01 15:44:00,14.4,11.0,30.18,WSW,248,12.0,21.0,86,0.00,,,0.00,102,weatherlink.com 1.10,2013-02-01 20:44:00,
2013-02-01 15:59:00,14.4,11.0,30.18,West,271,17.0,18.0,86,0.00,,,0.00,86,weatherlink.com 1.10,2013-02-01 20:59:00,
2013-02-01 16:14:00,14.2,11.0,30.17,West,259,9.0,21.0,86,0.00,,,0.00,60,weatherlink.com 1.10,2013-02-01 21:14:00,
2013-02-01 16:29:00,14.5,11.0,30.17,West,260,11.0,19.0,87,0.00,,,0.00,46,weatherlink.com 1.10,2013-02-01 21:29:00,
2013-02-01 16:45:00,14.4,11.0,30.17,WSW,255,11.0,18.0,86,0.00,,,0.00,42,weatherlink.com 1.10,2013-02-01 21:45:00,
2013-02-01 16:59:00,13.8,11.0,30.17,WSW,257,18.0,18.0,87,0.00,,,0.00,30,weatherlink.com 1.10,2013-02-01 21:59:00,
2013-02-01 17:15:00,13.7,11.0,30.17,WSW,239,7.0,13.0,87,0.00,,,0.00,12,weatherlink.com 1.10,2013-02-01 22:15:00,
2013-02-01 17:30:00,13.8,10.0,30.17,West,261,7.0,16.0,86,0.00,,,0.00,7,weatherlink.com 1.10,2013-02-01 22:30:00,
2013-02-01 17:45:00,14.0,10.0,30.17,WSW,245,11.0,18.0,85,0.00,,,0.00,0,weatherlink.com 1.10,2013-02-01 22:45:00,
2013-02-01 18:00:00,14.1,11.0,30.17,West,275,13.0,18.0,86,0.00,,,0.00,0,weatherlink.com 1.10,2013-02-01 23:00:00,
2013-02-01 18:15:00,14.1,10.0,30.17,West,269,5.0,19.0,85,0.00,,,0.00,0,weatherlink.com 1.10,2013-02-01 23:15:00,
2013-02-01 18:30:00,13.6,10.0,30.17,WSW,246,6.0,19.0,86,0.00,,,0.00,0,weatherlink.com 1.10,2013-02-01 23:30:00,
2013-02-01 18:45:00,13.7,11.0,30.16,WSW,246,7.0,13.0,88,0.00,,,0.00,0,weatherlink.com 1.10,2013-02-01 23:45:00,
2013-02-01 19:00:00,13.1,11.0,30.16,WSW,240,8.0,11.0,89,0.00,,,0.00,0,weatherlink.com 1.10,2013-02-02 00:00:00,
2013-02-01 19:15:00,13.3,11.0,30.16,West,263,9.0,18.0,90,0.00,,,0.00,0,weatherlink.com 1.10,2013-02-02 00:15:00,
2013-02-01 19:30:00,13.5,11.0,30.16,WSW,238,7.0,20.0,88,0.00,,,0.00,0,weatherlink.com 1.10,2013-02-02 00:30:00,
2013-02-01 19:45:00,13.6,11.0,30.16,WSW,247,16.0,23.0,88,0.00,,,0.00,0,weatherlink.com 1.10,2013-02-02 00:45:00,
2013-02-01 20:00:00,13.9,11.0,30.16,WSW,257,17.0,26.0,86,0.00,,,0.00,0,weatherlink.com 1.10,2013-02-02 01:00:00,
2013-02-01 20:15:00,14.0,10.0,30.16,West,272,14.0,21.0,85,0.00,,,0.00,0,weatherlink.com 1.10,2013-02-02 01:15:00,
2013-02-01 20:30:00,13.3,10.0,30.16,WSW,253,12.0,23.0,86,0.00,,,0.00,0,weatherlink.com 1.10,2013-02-02 01:30:00,
2013-02-01 20:46:00,14.4,11.0,30.16,West,277,15.0,24.0,87,0.00,,,0.00,0,weatherlink.com 1.10,2013-02-02 01:46:00,
2013-02-01 21:01:00,14.3,11.0,30.16,West,267,15.0,23.0,88,0.00,,,0.00,0,weatherlink.com 1.10,2013-02-02 02:01:00,
2013-02-01 21:16:00,13.3,9.0,30.15,West,266,17.0,25.0,83,0.00,,,0.00,0,weatherlink.com 1.10,2013-02-02 02:16:00,
2013-02-01 21:31:00,13.3,9.0,30.15,West,269,16.0,24.0,82,0.00,,,0.00,0,weatherlink.com 1.10,2013-02-02 02:31:00,
2013-02-01 21:46:00,13.0,9.0,30.15,West,268,16.0,22.0,84,0.00,,,0.00,0,weatherlink.com 1.10,2013-02-02 02:46:00,
2013-02-01 22:01:00,13.0,9.0,30.16,WSW,257,14.0,24.0,85,0.00,,,0.00,0,weatherlink.com 1.10,2013-02-02 03:01:00,
2013-02-01 22:16:00,12.9,9.0,30.15,West,280,17.0,20.0,84,0.00,,,0.00,0,weatherlink.com 1.10,2013-02-02 03:16:00,
2013-02-01 22:31:00,13.6,10.0,30.15,West,273,17.0,21.0,86,0.00,,,0.00,0,weatherlink.com 1.10,2013-02-02 03:31:00,
2013-02-01 22:46:00,12.7,9.0,30.15,West,281,14.0,21.0,83,0.00,,,0.00,0,weatherlink.com 1.10,2013-02-02 03:46:00,
2013-02-01 23:01:00,12.9,9.0,30.15,West,269,12.0,26.0,85,0.00,,,0.00,0,weatherlink.com 1.10,2013-02-02 04:01:00,
2013-02-01 23:16:00,12.7,9.0,30.15,West,280,15.0,19.0,86,0.00,,,0.00,0,weatherlink.com 1.10,2013-02-02 04:16:00,
2013-02-01 23:31:00,12.3,8.0,30.15,West,275,15.0,23.0,82,0.00,,,0.00,0,weatherlink.com 1.10,2013-02-02 04:31:00,
2013-02-01 23:46:00,12.0,8.0,30.15,West,271,16.0,23.0,82,0.00,,,0.00,0,weatherlink.com 1.10,2013-02-02 04:46:00,